Date,TemperatureHighF,TemperatureAvgF,TemperatureLowF,DewpointHighF,DewpointAvgF,DewpointLowF,HumidityHigh,HumidityAvg,HumidityLow,PressureMaxIn,PressureMinIn,WindSpeedMaxMPH,WindSpeedAvgMPH,GustSpeedMaxMPH,PrecipitationSumIn
2013-3-14,39,30,27,34,27,24,92,90,83,29.83,29.76,11,9,0,0.00
2013-3-15,28,22,9,26,19,5,92,90,87,29.99,29.61,19,10,0,0.00
2013-3-16,15,12,7,12,8,4,88,84,80,30.01,29.75,18,8,0,0.00
2013-3-17,28,19,5,24,16,2,92,88,85,29.75,29.25,22,15,0,0.00
2013-3-18,17,8,-1,11,4,-5,97,82,72,29.84,29.66,16,6,0,0.00
2013-3-19,15,9,2,9,4,-1,90,81,70,30.24,29.77,11,5,0,0.00
2013-3-20,35,20,4,25,14,1,86,74,60,30.19,29.60,28,13,0,0.00
2013-3-21,25,22,19,21,16,11,92,77,63,29.68,29.52,25,15,0,0.00
2013-3-22,23,18,7,20,15,4,92,89,85,29.90,29.65,14,7,0,0.00
2013-3-23,19,10,2,14,6,-1,90,85,77,30.13,29.90,12,5,0,0.00
2013-3-24,20,12,-4,16,8,-7,90,87,82,30.22,30.11,12,6,0,0.00
2013-3-25,20,5,-13,15,1,-17,88,83,78,30.24,30.02,10,4,0,0.00
2013-3-26,35,21,10,27,16,5,92,82,71,30.04,29.83,14,6,0,0.00
2013-3-27,29,15,4,25,12,1,92,88,83,29.96,29.87,4,1,0,0.00
2013-3-28,31,18,5,28,15,2,95,89,84,29.99,29.93,6,1,0,0.00
2013-3-29,43,33,23,38,30,22,96,90,83,29.93,29.75,11,2,0,0.00
2013-3-30,42,32,19,38,28,-100,96,87,72,29.88,29.80,12,4,0,0.00
2013-3-31,30,26,19,25,21,15,93,83,71,30.03,29.83,10,4,0,0.00
2013-4-1,36,26,16,29,21,12,92,81,70,30.05,29.97,7,2,0,0.00
2013-4-2,46,33,19,35,27,17,94,81,62,29.98,29.64,15,6,0,0.00
2013-4-3,46,39,28,37,32,25,90,74,66,29.92,29.53,21,8,0,0.00
2013-4-4,42,33,28,33,27,24,91,78,59,29.99,29.75,18,7,0,0.00
2013-4-5,60,42,30,44,33,25,87,74,48,29.75,29.31,21,10,0,0.00
2013-4-6,44,37,32,41,34,30,94,89,84,29.56,29.35,11,4,0,0.00
2013-4-7,54,40,30,42,34,27,95,83,50,29.55,29.35,15,9,0,0.00
2013-4-8,29,22,14,28,18,10,95,86,74,30.21,29.53,21,15,0,0.00
2013-4-9,33,22,12,22,15,9,89,78,59,30.31,30.20,10,5,0,0.00
2013-4-10,40,29,16,25,20,14,91,70,45,30.20,29.68,12,4,0,0.00
2013-4-11,40,32,26,31,25,20,92,75,53,29.68,29.59,13,7,0,0.00
2013-4-12,37,33,26,34,30,23,93,89,78,29.72,29.63,10,4,0,0.00
2013-4-13,48,34,23,32,28,22,95,79,49,29.65,29.28,25,15,0,0.00
2013-4-14,31,25,23,27,24,21,95,93,85,29.70,29.38,21,15,0,0.00
2013-4-15,31,27,24,28,25,22,100,91,85,29.87,29.67,13,7,0,0.00
2013-4-16,30,26,20,26,23,18,94,88,78,30.13,29.86,9,4,0,0.00
2013-4-17,31,24,14,25,21,12,100,88,74,30.13,30.05,7,3,0,0.00
2013-4-18,37,23,4,29,18,1,91,81,62,30.04,29.77,6,2,0,0.00
2013-4-19,37,33,29,30,25,21,91,75,54,29.80,29.70,17,9,0,0.00
2013-4-20,40,33,28,38,28,22,93,82,71,29.70,29.54,19,12,0,0.00
2013-4-21,40,34,24,38,27,20,93,78,60,30.06,29.57,18,10,0,0.00
2013-4-22,36,27,17,21,18,15,90,69,43,30.22,30.05,10,5,0,0.00
2013-4-23,48,36,23,32,23,18,93,65,32,30.11,29.74,17,6,0,0.00
2013-4-24,43,34,28,31,25,20,94,70,44,29.84,29.68,19,10,0,0.00
2013-4-25,64,47,30,34,29,22,78,54,28,29.68,29.44,14,7,0,0.00
2013-4-26,74,57,37,37,32,28,72,44,20,29.68,29.55,12,5,0,0.00
2013-4-27,75,61,46,40,36,32,63,41,21,29.55,29.31,13,7,0,0.00
2013-4-28,64,55,47,37,30,23,64,40,23,29.57,29.34,20,8,0,0.00
2013-4-29,65,53,41,42,34,27,74,51,29,29.41,29.04,20,9,0,0.00
2013-4-30,42,34,22,33,27,18,91,74,55,29.98,29.18,19,11,0,0.00
2013-5-1,49,34,22,24,18,12,89,58,24,30.36,29.97,14,6,0,0.00
2013-5-2,36,28,23,22,20,16,78,70,54,30.37,30.34,10,2,0,0.00
2013-5-8,63,51,43,33,31,28,56,46,33,29.91,29.84,12,6,0,0.00
2013-5-9,65,51,39,30,25,18,59,39,19,29.98,29.80,16,9,0,0.00
2013-5-10,61,50,36,42,27,-100,71,44,24,30.06,29.71,22,10,0,0.00
2013-5-11,59,44,23,26,20,-100,83,43,21,30.16,29.86,13,5,0,0.00
2013-5-12,81,62,41,45,31,16,49,32,21,29.86,29.38,13,8,0,0.00
2013-5-13,89,73,58,57,46,42,82,42,20,29.44,29.10,17,8,0,0.00
2013-5-14,71,61,49,57,45,39,93,59,31,29.52,29.15,24,10,0,0.00
2013-5-15,73,60,46,44,38,29,74,49,20,29.62,29.52,9,4,0,0.00
2013-5-16,71,55,46,49,27,-100,84,59,40,29.54,29.46,16,6,0,0.00
2013-5-17,69,58,53,54,46,-100,87,74,54,29.53,29.45,10,4,0,0.00
2013-5-18,68,59,53,57,53,50,93,81,65,29.52,29.44,14,6,0,0.00
2013-5-19,62,55,51,54,50,44,92,83,53,29.57,29.48,24,15,0,0.00
2013-5-20,60,52,47,53,48,43,96,89,69,29.66,29.53,23,15,0,0.00
2013-5-21,59,52,42,47,43,38,86,71,56,29.72,29.65,20,8,0,0.00
2013-5-22,68,57,40,47,40,33,94,59,27,29.81,29.71,22,11,0,0.00
2013-5-23,70,59,46,49,44,41,87,61,38,29.84,29.62,27,18,0,0.00
2013-5-24,69,58,50,51,46,43,77,64,42,29.65,29.44,23,10,0,0.00
2013-5-25,74,61,46,58,50,42,91,69,47,29.65,29.46,28,14,0,0.00
2013-5-26,75,64,53,59,55,51,94,74,48,29.62,29.43,15,6,0,0.00
2013-5-27,65,60,54,59,55,52,95,87,74,29.46,29.30,18,5,0,0.00
2013-5-28,68,59,51,57,54,49,95,84,63,29.35,29.28,9,4,0,0.00
2013-5-29,70,60,46,58,53,45,96,79,57,29.36,29.23,16,8,0,0.00
2013-5-30,58,53,51,54,51,49,96,92,83,29.28,29.14,21,15,0,0.00
2013-5-31,55,51,47,51,48,42,97,90,64,29.73,29.16,23,12,0,0.00
2013-6-1,62,52,38,46,41,-100,95,72,45,29.87,29.72,9,4,0,0.00
2013-6-2,68,56,42,48,45,39,89,68,45,29.79,29.54,16,9,0,0.00
2013-6-3,54,48,46,47,44,43,96,88,69,29.59,29.38,29,21,0,0.00
2013-6-4,54,48,44,49,45,42,94,88,74,29.88,29.59,19,12,0,0.00
2013-6-5,65,55,40,48,44,38,94,69,42,29.88,29.75,9,2,0,0.00
2013-6-6,72,59,45,53,48,43,91,68,44,29.75,29.62,8,4,0,0.00
2013-6-7,74,59,42,58,49,40,93,71,34,29.64,29.30,11,3,0,0.00
2013-6-8,65,59,50,57,54,47,96,85,65,29.51,29.27,17,6,0,0.00
2013-6-9,77,63,48,56,51,45,91,68,42,29.57,29.32,17,4,0,0.00
2013-6-10,73,62,50,56,52,48,96,72,43,29.55,29.38,9,4,0,0.00
2013-6-11,78,64,52,56,52,49,90,68,39,29.65,29.51,13,6,0,0.00
2013-6-12,73,64,55,58,56,53,95,77,56,29.73,29.56,12,6,0,0.00
2013-6-13,77,67,59,59,56,54,85,69,51,29.72,29.41,21,12,0,0.00
2013-6-14,70,62,51,58,53,46,95,74,48,29.55,29.31,16,7,0,0.00
2013-6-15,72,61,49,52,48,44,85,64,41,29.59,29.52,13,7,0,0.00
2013-6-16,71,61,52,54,50,46,87,68,50,29.72,29.55,16,8,0,0.00
2013-6-17,72,59,45,57,51,44,96,79,51,29.79,29.72,10,3,0,0.00
2013-6-18,79,67,52,61,55,49,91,69,44,29.73,29.44,13,8,0,0.00
2013-6-19,86,74,62,64,60,55,86,63,44,29.46,29.22,24,16,0,0.00
2013-6-20,75,64,58,63,59,50,94,83,41,29.49,29.15,23,10,0,0.00
2013-6-22,71,65,57,61,57,54,91,77,62,29.63,29.49,7,4,0,0.00
2013-6-23,74,63,54,58,54,51,94,75,46,29.49,29.36,10,5,0,0.00
2013-6-24,83,68,51,69,60,48,90,75,54,29.39,29.20,13,5,0,0.00
2013-6-25,76,68,58,64,61,56,92,79,57,29.37,29.18,20,6,0,0.00
2013-6-26,77,68,56,60,56,52,94,67,43,29.57,29.36,13,5,0,0.00
2013-6-27,79,68,55,58,54,50,89,64,37,29.74,29.57,14,5,0,0.00
2013-6-28,81,68,51,61,56,49,93,67,41,29.81,29.74,11,4,0,0.00
2013-6-29,77,66,48,62,56,47,98,73,52,29.82,29.75,10,4,0,0.00
2013-6-30,78,67,51,64,58,50,96,73,54,29.82,29.77,12,6,0,0.00
2013-7-1,83,71,56,66,60,52,86,69,46,29.84,29.74,10,4,0,0.00
2013-7-2,84,72,59,66,59,52,80,65,43,29.77,29.58,9,5,0,0.00
2013-7-3,89,75,61,69,61,53,84,64,41,29.57,29.30,9,6,0,0.00
2013-7-4,81,72,63,69,63,57,93,74,48,29.46,29.35,8,5,0,0.00
2013-7-5,84,70,62,69,61,54,93,76,55,29.41,29.29,11,5,0,0.00
2013-7-6,76,68,63,63,61,55,95,80,50,29.48,29.31,13,5,0,0.00
2013-7-7,78,67,55,64,59,53,95,76,48,29.61,29.54,8,3,0,0.00
2013-7-8,80,68,59,69,63,57,95,84,67,29.59,29.40,14,5,0,0.00
2013-7-9,71,64,55,62,58,51,96,83,65,29.77,29.54,11,4,0,0.00
2013-7-10,80,67,52,65,55,-100,94,71,50,29.78,29.51,9,2,0,0.00
2013-7-11,94,76,63,75,66,59,91,75,37,29.51,29.20,13,6,0,0.00
2013-7-12,85,75,61,68,60,50,90,63,31,29.49,29.27,6,3,0,0.00
2013-7-13,90,70,53,71,60,50,90,72,49,29.83,29.44,25,9,0,0.00
2013-7-14,68,59,49,59,54,47,96,82,65,29.92,29.79,8,4,0,0.00
2013-7-15,83,70,56,72,64,53,93,80,67,29.83,29.45,15,8,0,0.00
2013-7-16,70,64,55,66,58,52,93,80,65,29.86,29.47,14,7,0,0.00
2013-7-17,70,63,54,64,59,52,97,87,76,29.87,29.65,12,5,0,0.00
2013-7-18,86,69,54,68,58,52,97,72,31,29.65,29.52,16,6,0,0.00
2013-7-19,84,68,50,63,56,48,95,68,33,29.65,29.51,9,3,0,0.00
2013-7-20,78,65,53,63,57,-100,95,78,56,29.63,29.49,8,4,0,0.00
2013-7-21,88,72,58,69,61,53,91,72,43,29.49,29.26,16,8,0,0.00
2013-7-22,75,63,47,58,54,46,96,74,52,29.62,29.48,8,4,0,0.00
2013-7-23,74,64,53,64,58,51,95,82,61,29.72,29.62,10,3,0,0.00
2013-7-24,82,64,50,64,58,49,96,80,43,29.74,29.62,7,1,0,0.00
2013-7-25,69,60,48,56,52,44,97,77,48,29.91,29.65,12,6,0,0.00
2013-7-26,71,57,43,52,47,42,97,74,42,30.00,29.88,9,4,0,0.00
2013-7-27,74,62,44,51,46,42,92,60,39,29.90,29.61,14,10,0,0.00
2013-7-28,79,63,50,63,50,42,92,63,45,29.62,29.46,17,8,0,0.00
2013-7-29,74,62,51,61,56,49,94,81,58,29.70,29.48,10,4,0,0.00
2013-7-30,73,62,48,61,55,46,96,81,58,29.81,29.70,10,3,0,0.00
2013-7-31,77,67,44,54,49,43,96,56,36,29.86,29.74,12,6,0,0.00
2013-8-1,79,63,46,55,50,43,89,65,38,29.76,29.60,10,2,0,0.00
2013-8-2,75,63,55,58,54,50,91,75,45,29.77,29.62,12,4,0,0.00
2013-8-3,80,66,55,61,58,53,93,76,50,29.81,29.67,14,9,0,0.00
2013-8-4,76,63,53,62,58,52,97,85,58,29.70,29.57,10,2,0,0.00
2013-8-5,83,63,48,61,55,47,97,78,40,29.65,29.40,5,2,0,0.00
2013-8-6,75,60,52,61,56,51,97,87,56,29.65,29.43,7,3,0,0.00
2013-8-7,70,59,48,55,51,46,96,77,43,29.74,29.65,13,5,0,0.00
2013-8-8,73,58,41,55,48,40,97,73,43,29.83,29.73,10,3,0,0.00
2013-8-9,73,62,50,53,50,47,93,68,41,29.87,29.80,8,3,0,0.00
2013-8-10,76,62,54,61,56,51,95,81,57,29.83,29.68,20,6,0,0.00
2013-8-11,76,63,52,61,56,51,96,79,54,29.80,29.71,10,5,0,0.00
2013-8-12,80,66,53,60,55,51,93,70,46,29.77,29.71,11,5,0,0.00
2013-8-13,79,65,58,65,56,-100,94,77,60,29.79,29.66,14,7,0,0.00
2013-8-14,76,65,57,65,58,-100,95,82,57,29.73,29.62,12,3,0,0.00
2013-8-15,83,61,51,66,45,-100,97,75,46,29.67,29.59,4,1,0,0.00
2013-8-16,89,72,60,66,58,-100,92,67,39,29.60,29.47,8,5,0,0.00
2013-8-17,87,73,59,70,62,-100,94,71,46,29.49,29.42,7,3,0,0.00
2013-8-18,85,68,56,65,59,55,95,75,40,29.62,29.49,16,3,0,0.00
2013-8-19,89,71,61,64,44,-100,80,57,28,29.51,29.38,8,4,0,0.00
2013-8-20,86,72,56,60,52,-100,83,55,31,29.51,29.34,14,5,0,0.00
2013-8-21,78,66,54,58,52,46,94,63,39,29.79,29.50,17,7,0,0.00
2013-8-22,82,70,53,60,52,46,79,55,41,29.82,29.55,18,9,0,0.00
2013-8-23,90,76,61,69,63,54,89,66,44,29.56,29.27,11,6,0,0.00
2013-8-24,81,70,63,68,61,-100,90,74,54,29.47,29.28,10,2,0,0.00
2013-8-25,87,72,54,65,59,51,92,66,38,29.57,29.47,10,3,0,0.00
2013-8-26,88,75,64,71,64,58,84,68,52,29.52,29.40,7,2,0,0.00
2013-8-27,81,69,63,64,61,57,92,75,49,29.59,29.44,9,3,0,0.00
2013-8-28,90,83,70,70,68,64,88,62,48,29.58,29.42,16,8,0,0.00
2013-8-29,86,72,59,69,65,58,97,79,46,29.58,29.42,16,2,0,0.00
2013-8-30,88,74,63,67,63,58,90,71,40,29.59,29.41,5,2,0,0.00
2013-8-31,78,66,57,58,52,-100,87,63,38,29.67,29.42,15,7,0,0.00
2013-9-1,75,63,51,59,56,50,96,80,54,29.75,29.64,8,2,0,0.00
2013-9-2,88,70,55,61,56,52,89,66,36,29.65,29.49,10,6,0,0.00
2013-9-3,94,77,61,65,60,54,87,59,28,29.62,29.49,10,4,0,0.00
2013-9-4,81,72,61,65,61,59,93,70,51,29.71,29.62,14,9,0,0.00
2013-9-5,93,77,65,69,63,57,84,65,39,29.67,29.48,10,5,0,0.00
2013-9-6,90,77,65,72,66,61,93,71,45,29.57,29.47,8,3,0,0.00
2013-9-7,75,66,59,68,59,-100,94,83,59,29.70,29.55,17,7,0,0.00
2013-9-8,70,63,57,64,59,55,95,88,77,29.66,29.44,7,3,0,0.00
2013-9-9,74,63,51,62,58,50,96,84,55,29.54,29.39,14,4,0,0.00
2013-9-10,80,65,52,60,54,48,96,71,33,29.64,29.54,10,4,0,0.00
2013-9-11,78,67,49,55,49,44,94,56,32,29.86,29.74,10,4,0,0.00
2013-9-12,77,68,41,52,46,39,94,47,30,30.01,29.77,10,5,0,0.00
2013-9-13,86,70,56,58,53,47,77,57,33,29.78,29.37,11,7,0,0.00
2013-9-14,74,64,52,63,55,-100,94,75,49,29.72,29.35,18,6,0,0.00
2013-9-15,69,56,46,51,45,41,93,71,41,29.92,29.77,10,6,0,0.00
2013-9-16,79,64,51,57,52,44,89,67,43,29.81,29.38,15,10,0,0.00
2013-9-17,83,68,53,61,55,50,92,66,38,29.38,29.20,12,4,0,0.00
2013-9-18,60,57,52,56,55,49,96,92,85,29.41,29.20,6,2,0,0.00
2013-9-19,52,48,36,49,44,33,94,85,73,29.78,29.41,11,6,0,0.00
2013-9-20,68,52,31,46,37,30,96,62,33,29.79,29.56,8,2,0,0.00
2013-9-21,80,61,45,51,42,-100,75,54,31,29.56,29.21,13,8,0,0.00
2013-9-22,72,59,46,55,50,43,92,72,54,29.21,29.09,12,5,0,0.00
2013-9-23,69,57,48,50,45,36,93,66,39,29.48,29.13,11,3,0,0.00
2013-9-24,72,56,39,44,38,33,85,53,29,29.59,29.28,14,4,0,0.00
2013-9-25,63,56,50,50,46,42,94,71,51,29.32,29.18,15,6,0,0.00
2013-9-26,52,49,41,50,45,38,95,88,74,29.62,29.26,11,6,0,0.00
2013-9-27,53,46,38,41,38,35,90,74,52,29.62,29.51,5,2,0,0.00
2013-9-28,63,50,39,42,35,-100,83,63,35,29.51,29.38,13,6,0,0.00
2013-9-29,77,61,48,43,40,35,70,46,27,29.38,29.12,16,7,0,0.00
2013-9-30,72,54,37,46,40,33,87,62,37,29.28,29.08,16,6,0,0.00
2013-10-1,57,45,40,34,32,30,70,60,41,29.57,29.52,1,0,0,0.00
2013-10-2,61,53,38,36,31,26,81,45,26,29.72,29.59,10,4,0,0.00
2013-10-3,49,42,35,39,35,30,89,76,64,30.02,29.72,13,6,0,0.00
2013-10-4,41,38,28,36,31,23,87,76,59,30.13,30.02,13,9,0,0.00
2013-10-5,53,42,18,31,27,16,91,59,38,30.04,29.78,7,2,0,0.00
2013-10-6,70,49,28,42,33,24,90,60,33,29.79,29.64,9,3,0,0.00
2013-10-7,77,54,35,40,36,31,89,58,20,29.64,29.25,11,4,0,0.00
2013-10-8,65,54,43,38,33,29,69,46,28,29.56,29.25,12,4,0,0.00
2013-10-9,61,47,31,43,35,27,84,65,42,29.78,29.57,8,2,0,0.00
2013-10-10,64,52,37,45,42,34,92,70,45,29.67,29.34,10,4,0,0.00
2013-10-11,49,46,43,44,38,27,90,73,50,29.56,29.31,15,9,0,0.00
2013-10-12,54,43,32,32,25,-100,77,54,33,29.91,29.55,11,6,0,0.00
2013-10-13,55,42,19,34,28,16,90,59,35,30.05,29.95,10,4,0,0.00
2013-10-14,45,41,30,37,33,26,87,73,54,30.04,29.91,14,6,0,0.00
2013-10-15,54,41,21,31,26,18,90,59,34,30.06,29.78,7,3,0,0.00
2013-10-16,54,41,33,37,33,28,93,73,50,29.79,29.62,17,5,0,0.00
2013-10-17,47,38,30,35,30,26,92,75,44,29.85,29.75,9,4,0,0.00
2013-10-18,49,40,31,40,34,29,93,80,61,29.79,29.55,11,4,0,0.00
2013-10-19,59,46,38,39,34,-100,85,66,41,29.55,29.35,15,5,0,0.00
2013-10-20,47,38,33,39,30,23,89,72,45,29.74,29.40,19,9,0,0.00
2013-10-21,51,41,35,47,38,32,93,89,77,29.72,29.55,11,3,0,0.00
2013-10-22,47,40,33,40,36,30,94,85,69,29.83,29.70,5,2,0,0.00
2013-10-23,43,39,34,41,35,29,94,86,68,29.98,29.72,12,4,0,0.00
2013-10-24,45,34,19,32,28,17,94,79,57,30.10,29.88,7,2,0,0.00
2013-10-25,62,49,33,42,31,21,91,53,30,29.93,29.69,17,8,0,0.00
2013-10-26,62,43,17,32,24,-100,89,54,30,29.98,29.59,8,3,0,0.00
2013-10-27,44,36,27,33,28,20,91,73,60,30.14,29.57,17,13,0,0.00
2013-10-28,28,25,23,22,17,-100,90,76,68,30.26,30.13,14,10,0,0.00
2013-10-29,33,29,25,28,25,22,90,85,79,30.14,29.72,8,6,0,0.00
2013-10-30,47,35,28,34,30,24,92,80,58,29.72,29.38,9,4,0,0.00
2013-10-31,53,39,27,36,31,25,92,75,46,29.40,29.28,9,4,0,0.00
2013-11-1,53,43,33,35,32,24,83,66,39,29.72,29.40,17,10,0,0.00
2013-11-2,53,44,21,32,27,-100,88,55,42,29.74,29.30,14,10,0,0.00
2013-11-3,50,39,26,38,29,22,88,68,45,29.44,29.21,15,7,0,0.00
2013-11-4,33,27,15,24,16,10,81,64,46,29.88,29.45,16,10,0,0.00
2013-11-5,41,22,10,24,15,7,87,74,46,29.94,29.80,7,2,0,0.00
2013-11-6,36,26,15,22,17,11,86,70,52,30.02,29.78,8,3,0,0.00
2013-11-7,46,33,21,27,22,13,87,64,34,30.05,29.47,16,5,0,0.00
2013-11-8,50,40,34,40,34,26,93,79,56,29.64,29.28,17,8,0,0.00
2013-11-9,36,30,18,28,22,-100,90,76,63,29.98,29.65,14,6,0,0.00
2013-11-10,35,24,16,26,17,7,88,75,55,30.24,29.85,15,7,0,0.00
2013-11-11,25,14,0,14,8,-4,88,77,61,30.44,30.24,7,3,0,0.00
2013-11-12,51,30,11,35,24,8,91,79,54,30.37,29.78,8,3,0,0.00
2013-11-13,55,45,37,39,35,32,82,69,49,29.78,29.59,9,4,0,0.00
2013-11-14,49,36,22,34,29,19,92,78,54,29.64,29.41,9,3,0,0.00
2013-11-15,50,37,26,32,26,20,91,67,38,29.41,29.06,11,4,0,0.00
2013-11-16,40,35,32,34,29,-100,94,82,68,29.13,28.99,8,2,0,0.00
2013-11-17,33,26,12,32,24,9,95,89,75,29.73,29.13,8,3,0,0.00
2013-11-18,50,28,11,28,21,8,91,75,41,29.75,29.51,7,3,0,0.00
2013-11-19,58,34,15,32,24,10,85,70,32,29.53,29.19,12,4,0,0.00
2013-11-20,16,10,-4,10,5,-8,87,82,75,30.33,29.55,10,6,0,0.00
2013-11-21,17,3,-19,9,-3,-24,92,75,66,30.45,30.26,11,4,0,0.00
2013-11-22,16,7,-10,9,1,-14,86,78,68,30.65,30.26,9,3,0,0.00
2013-11-23,25,13,-3,17,6,-100,83,76,67,30.64,29.94,9,5,0,0.00
2013-11-24,37,30,18,27,22,11,81,71,62,29.84,29.70,11,3,0,0.00
2013-11-25,32,25,19,23,19,15,85,78,66,30.18,29.84,12,6,0,0.00
2013-11-26,24,17,1,15,11,-2,89,77,62,30.30,29.85,9,5,0,0.00
2013-11-27,33,26,21,25,20,15,88,79,69,30.03,29.70,12,6,0,0.00
2013-11-28,25,22,20,20,18,16,89,85,80,30.07,29.78,10,6,0,0.00
2013-11-29,41,25,10,31,21,7,92,84,65,29.84,29.72,8,2,0,0.00
2013-11-30,41,32,27,34,27,-100,92,86,67,29.91,29.79,9,2,0,0.00
2013-12-1,42,35,30,35,32,28,94,87,69,29.78,29.28,5,3,0,0.00
2013-12-2,36,26,18,35,25,15,99,94,89,29.62,29.22,14,7,0,0.00
2013-12-3,18,10,6,16,8,3,90,87,85,29.97,29.62,16,11,0,0.00
2013-12-4,6,2,-8,3,-1,-12,88,84,79,30.09,29.96,12,8,0,0.00
2013-12-5,-2,-10,-16,-7,-14,-21,82,80,76,30.37,30.08,9,4,0,0.00
2013-12-6,-8,-15,-21,-14,-20,-26,92,78,74,30.54,30.37,7,4,0,0.00
2013-12-7,-8,-18,-25,-14,-25,-100,79,75,73,30.53,30.17,7,3,0,0.00
2013-12-8,0,-11,-25,-5,-16,-30,81,78,74,30.15,29.95,10,4,0,0.00
2013-12-9,16,0,-15,13,-5,-19,88,81,75,30.05,29.54,24,7,0,0.00
2013-12-10,17,4,-14,15,-1,-19,90,81,71,30.27,29.69,15,6,0,0.00
2013-12-11,21,1,-18,13,-4,-23,86,80,72,30.27,29.98,7,1,0,0.00
2013-12-12,33,22,8,26,17,5,88,83,73,29.98,29.74,9,3,0,0.00
2013-12-13,11,5,2,8,1,-2,89,84,80,30.05,29.75,13,8,0,0.00
2013-12-14,13,9,4,9,4,-100,87,81,77,30.07,29.77,8,4,0,0.00
2013-12-15,39,25,13,31,20,9,88,82,70,29.78,29.55,13,4,0,0.00
2013-12-16,34,32,28,30,27,21,93,82,68,29.90,29.66,14,8,0,0.00
2013-12-17,35,24,15,27,18,11,87,79,71,29.95,29.40,11,5,0,0.00
2013-12-18,35,23,0,30,17,-5,85,79,71,29.89,29.35,20,7,0,0.00
2013-12-19,2,-2,-10,-3,-7,-14,84,81,78,30.11,29.88,10,4,0,0.00
2013-12-20,9,-2,-12,4,-6,-16,85,82,78,29.92,29.59,6,1,0,0.00
2013-12-21,2,0,-5,-2,-5,-100,85,83,82,29.98,29.64,13,6,0,0.00
2013-12-22,0,-9,-19,-5,-13,-24,83,81,78,30.33,30.07,7,2,0,0.00
2013-12-23,21,-4,-31,17,-8,-36,92,80,74,30.42,29.72,13,6,0,0.00
2013-12-24,32,26,17,29,22,14,91,86,76,29.89,29.68,11,4,0,0.00
2013-12-25,32,26,15,26,21,13,92,82,71,30.01,29.69,11,4,0,0.00
2013-12-26,39,32,26,32,26,21,85,77,68,29.83,29.59,10,6,0,0.00
2013-12-27,42,38,32,35,31,28,87,77,68,29.71,29.41,8,4,0,0.00
2013-12-28,40,12,-3,32,4,-100,83,74,71,30.32,29.39,22,9,0,0.00
2013-12-29,16,9,0,13,4,-6,88,80,74,30.31,29.68,7,3,0,0.00
2013-12-30,16,8,1,13,3,-3,89,81,72,30.07,29.70,11,6,0,0.00
2013-12-31,2,0,-2,-2,-4,-6,84,83,82,30.04,29.91,17,9,0,0.00
2014-1-1,7,5,2,3,1,-2,86,84,81,30.23,30.02,8,4,0,0.00
2014-1-2,36,13,-9,32,10,-13,91,87,78,30.16,29.40,11,5,0,0.00